QPF
0.00 0.00 0.00 0.00 0.00 0.00 0.00 0.00 0.00 0.00 0.00 0.00 0.00 0.00 0.01 0.03 0.02 0.01 0.01 0.01 0.01 0.02 0.03 0.03 0.03 0.01 0.01 0.02 0.02 0.01 0.01 0.01 0.02 0.01 0.01 0.02 0.03 0.03 0.02 0.02 0.01 0.01 0.02 0.02
0.01 0.00 0.00 0.00 0.00 0.00 0.00 0.01 0.01 0.00 0.00 0.00 0.00 0.00 0.00 0.01 0.01 0.01 0.01 0.01 0.02 0.03 0.02 0.02 0.02 0.01 0.01 0.01 0.02 0.02 0.01 0.01 0.01 0.01 0.01 0.02 0.02 0.01 0.02 0.01 0.02 0.01 0.02 0.02
0.00 0.00 0.00 0.00 0.00 0.00 0.00 0.01 0.01 0.01 0.01 0.00 0.01 0.01 0.01 0.01 0.01 0.01 0.01 0.01 0.01 0.02 0.02 0.02 0.02 0.02 0.01 0.01 0.01 0.01 0.01 0.01 0.01 0.01 0.01 0.01 0.01 0.01 0.01 0.01 0.02 0.02 0.01 0.02
0.00 0.00 0.00 0.00 0.00 0.00 0.00 0.00 0.00 0.01 0.01 0.01 0.01 0.01 0.02 0.02 0.01 0.01 0.01 0.01 0.00 0.01 0.02 0.02 0.01 0.01 0.01 0.00 0.00 0.01 0.01 0.01 0.01 0.01 0.01 0.01 0.01 0.02 0.02 0.03 0.03 0.02 0.02 0.02
0.00 0.00 0.00 0.00 0.00 0.00 0.00 0.00 0.01 0.01 0.01 0.01 0.02 0.01 0.03 0.04 0.02 0.01 0.01 0.01 0.01 0.01 0.02 0.02 0.01 0.02 0.01 0.01 0.01 0.01 0.01 0.01 0.01 0.01 0.01 0.02 0.01 0.01 0.01 0.03 0.04 0.03 0.02 0.01
0.00 0.00 0.00 0.00 0.00 0.00 0.00 0.00 0.00 0.01 0.01 0.01 0.01 0.01 0.02 0.02 0.01 0.00 0.01 0.02 0.02 0.01 0.03 0.02 0.02 0.02 0.02 0.01 0.02 0.02 0.01 0.01 0.01 0.01 0.01 0.01 0.02 0.02 0.02 0.03 0.03 0.02 0.02 0.02
0.00 0.00 0.00 0.00 0.00 0.00 0.00 0.01 0.01 0.01 0.01 0.01 0.01 0.02 0.02 0.02 0.01 0.01 0.01 0.01 0.01 0.02 0.02 0.01 0.01 0.02 0.03 0.01 0.01 0.01 0.01 0.01 0.01 0.01 0.01 0.01 0.01 0.02 0.02 0.03 0.02 0.02 0.02 0.02
0.00 0.00 0.00 0.00 0.00 0.00 0.00 0.00 0.01 0.01 0.01 0.01 0.01 0.02 0.02 0.01 0.01 0.01 0.01 0.01 0.01 0.01 0.01 0.02 0.03 0.03 0.05 0.04 0.02 0.01 0.01 0.02 0.01 0.01 0.02 0.02 0.03 0.03 0.03 0.03 0.02 0.02 0.02 0.02
0.00 0.00 0.00 0.00 0.00 0.00 0.00 0.00 0.00 0.00 0.01 0.01 0.02 0.01 0.01 0.01 0.00 0.00 0.00 0.00 0.00 0.00 0.01 0.02 0.04 0.04 0.05 0.05 0.02 0.02 0.02 0.01 0.01 0.01 0.02 0.02 0.03 0.03 0.03 0.03 0.03 0.02 0.03 0.02
0.00 0.00 0.00 0.00 0.00 0.00 0.00 0.00 0.00 0.00 0.01 0.01 0.01 0.01 0.01 0.00 0.00 0.00 0.00 0.00 0.00 0.00 0.01 0.02 0.04 0.06 0.05 0.05 0.04 0.03 0.03 0.02 0.01 0.01 0.02 0.02 0.02 0.02 0.02 0.03 0.03 0.03 0.03 0.02
0.00 0.00 0.00 0.00 0.00 0.00 0.01 0.01 0.01 0.00 0.00 0.01 0.01 0.01 0.00 0.00 0.00 0.00 0.00 0.00 0.00 0.01 0.01 0.02 0.05 0.07 0.05 0.04 0.05 0.03 0.03 0.02 0.02 0.01 0.01 0.01 0.01 0.02 0.02 0.02 0.03 0.03 0.03 0.03
0.00 0.00 0.00 0.00 0.00 0.00 0.00 0.00 0.01 0.01 0.00 0.00 0.01 0.01 0.00 0.00 0.00 0.00 0.01 0.01 0.01 0.01 0.01 0.02 0.03 0.06 0.06 0.04 0.04 0.04 0.03 0.02 0.02 0.01 0.01 0.01 0.01 0.01 0.02 0.03 0.03 0.03 0.04 0.04
0.00 0.00 0.00 0.00 0.00 0.00 0.00 0.00 0.00 0.00 0.00 0.00 0.01 0.01 0.01 0.00 0.00 0.01 0.01 0.01 0.01 0.02 0.01 0.01 0.02 0.04 0.05 0.05 0.04 0.03 0.02 0.02 0.02 0.02 0.01 0.01 0.02 0.02 0.02 0.03 0.03 0.04 0.04 0.05
0.00 0.00 0.00 0.00 0.00 0.00 0.00 0.00 0.00 0.00 0.00 0.00 0.01 0.01 0.01 0.01 0.01 0.01 0.02 0.02 0.02 0.02 0.02 0.02 0.02 0.02 0.03 0.04 0.03 0.02 0.02 0.02 0.02 0.01 0.01 0.02 0.03 0.03 0.02 0.03 0.03 0.03 0.03 0.03
0.00 0.00 0.00 0.00 0.00 0.00 0.00 0.00 0.00 0.00 0.00 0.00 0.01 0.02 0.03 0.03 0.01 0.01 0.02 0.03 0.03 0.02 0.01 0.01 0.01 0.02 0.02 0.02 0.02 0.02 0.02 0.02 0.02 0.02 0.02 0.03 0.03 0.03 0.02 0.02 0.03 0.03 0.03 0.04
0.00 0.00 0.00 0.00 0.00 0.00 0.00 0.00 0.00 0.00 0.00 0.00 0.00 0.01 0.03 0.04 0.02 0.01 0.02 0.03 0.03 0.01 0.01 0.01 0.01 0.02 0.02 0.02 0.02 0.02 0.01 0.01 0.01 0.01 0.01 0.02 0.02 0.02 0.02 0.02 0.03 0.04 0.04 0.04
0.00 0.00 0.00 0.00 0.00 0.00 0.00 0.00 0.00 0.00 0.00 0.00 0.00 0.00 0.02 0.03 0.03 0.01 0.01 0.02 0.02 0.01 0.01 0.01 0.01 0.02 0.01 0.01 0.02 0.02 0.01 0.01 0.01 0.01 0.01 0.01 0.01 0.02 0.02 0.02 0.02 0.03 0.05 0.07
0.00 0.00 0.00 0.00 0.00 0.00 0.00 0.00 0.00 0.00 0.00 0.00 0.00 0.00 0.00 0.01 0.03 0.01 0.01 0.01 0.01 0.02 0.01 0.02 0.02 0.01 0.01 0.01 0.02 0.01 0.01 0.01 0.01 0.01 0.01 0.01 0.01 0.02 0.02 0.01 0.01 0.03 0.05 0.08
0.00 0.00 0.00 0.00 0.00 0.00 0.00 0.00 0.00 0.00 0.00 0.00 0.00 0.00 0.00 0.00 0.01 0.01 0.01 0.01 0.01 0.02 0.02 0.02 0.03 0.02 0.01 0.01 0.01 0.01 0.01 0.01 0.01 0.01 0.01 0.02 0.03 0.03 0.01 0.01 0.02 0.03 0.04 0.07
0.00 0.00 0.00 0.00 0.00 0.00 0.00 0.00 0.00 0.00 0.01 0.00 0.00 0.00 0.00 0.00 0.01 0.01 0.01 0.00 0.01 0.01 0.01 0.01 0.02 0.01 0.01 0.01 0.01 0.02 0.01 0.01 0.01 0.01 0.01 0.02 0.02 0.02 0.02 0.02 0.03 0.03 0.04 0.05
0.00 0.00 0.00 0.00 0.00 0.00 0.00 0.00 0.00 0.01 0.01 0.00 0.00 0.00 0.00 0.00 0.00 0.00 0.00 0.01 0.01 0.01 0.01 0.01 0.01 0.01 0.01 0.01 0.01 0.01 0.01 0.01 0.01 0.01 0.01 0.01 0.01 0.01 0.01 0.01 0.02 0.03 0.04 0.03
0.00 0.00 0.00 0.01 0.01 0.01 0.00 0.00 0.00 0.00 0.00 0.00 0.00 0.00 0.00 0.00 0.00 0.00 0.00 0.00 0.01 0.01 0.01 0.01 0.01 0.02 0.02 0.01 0.01 0.02 0.01 0.01 0.01 0.01 0.02 0.02 0.01 0.01 0.01 0.01 0.01 0.02 0.03 0.02
0.00 0.00 0.01 0.01 0.01 0.01 0.01 0.00 0.00 0.00 0.00 0.00 0.00 0.00 0.00 0.00 0.00 0.00 0.00 0.00 0.01 0.01 0.01 0.01 0.01 0.02 0.02 0.01 0.01 0.01 0.01 0.01 0.01 0.01 0.02 0.03 0.02 0.01 0.02 0.02 0.01 0.01 0.02 0.02
0.00 0.00 0.00 0.00 0.00 0.00 0.01 0.01 0.00 0.00 0.00 0.00 0.00 0.00 0.00 0.00 0.00 0.00 0.00 0.00 0.01 0.01 0.01 0.01 0.01 0.01 0.01 0.01 0.01 0.01 0.01 0.01 0.01 0.01 0.02 0.03 0.01 0.01 0.02 0.02 0.02 0.02 0.02 0.02
0.00 0.00 0.00 0.00 0.00 0.00 0.00 0.00 0.00 0.00 0.01 0.00 0.00 0.00 0.00 0.00 0.00 0.00 0.00 0.00 0.00 0.00 0.01 0.01 0.01 0.02 0.01 0.00 0.01 0.01 0.01 0.01 0.01 0.01 0.02 0.02 0.01 0.01 0.01 0.00 0.01 0.01 0.01 0.02
0.00 0.00 0.00 0.00 0.00 0.00 0.00 0.00 0.00 0.00 0.00 0.01 0.01 0.00 0.00 0.00 0.00 0.00 0.00 0.00 0.01 0.01 0.01 0.01 0.01 0.01 0.01 0.00 0.00 0.01 0.01 0.01 0.02 0.01 0.01 0.02 0.02 0.01 0.01 0.01 0.01 0.01 0.01 0.01
MSLP
1009.08 1009.57 1009.90 1010.09 1010.14 1010.11 1010.03 1009.94 1009.86 1009.79 1009.71 1009.60 1009.44 1009.22 1008.94 1008.63 1008.30 1008.00 1007.76 1007.60 1007.54 1007.57 1007.68 1007.87 1008.09 1008.36 1008.63 1008.92 1009.21 1009.49 1009.74 1009.96 1010.14 1010.26 1010.34 1010.38 1010.41 1010.44 1010.48 1010.56 1010.67 1010.79 1010.91 1011.02
1009.27 1009.73 1010.04 1010.21 1010.26 1010.23 1010.17 1010.09 1010.02 1009.96 1009.89 1009.80 1009.66 1009.48 1009.24 1008.97 1008.70 1008.43 1008.20 1008.03 1007.92 1007.86 1007.86 1007.91 1008.01 1008.14 1008.32 1008.53 1008.76 1009.01 1009.26 1009.47 1009.64 1009.75 1009.80 1009.80 1009.78 1009.76 1009.78 1009.85 1009.97 1010.13 1010.32 1010.50
1009.42 1009.82 1010.08 1010.23 1010.28 1010.26 1010.22 1010.16 1010.11 1010.05 1009.99 1009.90 1009.77 1009.61 1009.41 1009.18 1008.95 1008.73 1008.53 1008.36 1008.22 1008.10 1008.01 1007.95 1007.92 1007.93 1008.00 1008.12 1008.30 1008.51 1008.73 1008.93 1009.09 1009.18 1009.20 1009.16 1009.10 1009.05 1009.04 1009.10 1009.24 1009.44 1009.69 1009.95
1009.50 1009.82 1010.04 1010.16 1010.21 1010.22 1010.20 1010.18 1010.15 1010.11 1010.05 1009.95 1009.82 1009.66 1009.46 1009.26 1009.07 1008.88 1008.71 1008.55 1008.40 1008.25 1008.10 1007.95 1007.82 1007.74 1007.71 1007.75 1007.86 1008.02 1008.21 1008.39 1008.53 1008.61 1008.61 1008.54 1008.45 1008.37 1008.34 1008.39 1008.54 1008.79 1009.09 1009.42
1009.53 1009.77 1009.93 1010.03 1010.10 1010.15 1010.18 1010.21 1010.21 1010.19 1010.13 1010.02 1009.87 1009.68 1009.47 1009.27 1009.08 1008.91 1008.76 1008.62 1008.47 1008.31 1008.12 1007.92 1007.72 1007.56 1007.45 1007.42 1007.46 1007.58 1007.73 1007.89 1008.01 1008.07 1008.06 1007.98 1007.87 1007.77 1007.72 1007.77 1007.93 1008.19 1008.54 1008.92
1009.54 1009.70 1009.81 1009.91 1010.00 1010.10 1010.20 1010.28 1010.34 1010.35 1010.29 1010.16 1009.97 1009.73 1009.49 1009.25 1009.04 1008.86 1008.72 1008.59 1008.45 1008.29 1008.10 1007.87 1007.63 1007.41 1007.24 1007.14 1007.12 1007.18 1007.29 1007.42 1007.52 1007.57 1007.54 1007.46 1007.34 1007.23 1007.17 1007.21 1007.37 1007.65 1008.02 1008.44
1009.57 1009.65 1009.73 1009.83 1009.96 1010.11 1010.29 1010.44 1010.55 1010.59 1010.53 1010.37 1010.13 1009.84 1009.53 1009.24 1008.99 1008.79 1008.64 1008.51 1008.39 1008.24 1008.04 1007.81 1007.55 1007.28 1007.06 1006.89 1006.81 1006.80 1006.86 1006.94 1007.02 1007.05 1007.02 1006.93 1006.82 1006.70 1006.64 1006.68 1006.83 1007.10 1007.48 1007.93
1009.63 1009.67 1009.72 1009.83 1010.00 1010.22 1010.46 1010.68 1010.84 1010.90 1010.84 1010.65 1010.36 1010.01 1009.62 1009.27 1008.96 1008.73 1008.56 1008.43 1008.31 1008.18 1007.99 1007.75 1007.47 1007.17 1006.88 1006.64 1006.48 1006.39 1006.38 1006.40 1006.44 1006.44 1006.41 1006.33 1006.22 1006.12 1006.07 1006.10 1006.24 1006.51 1006.89 1007.35
1009.76 1009.76 1009.81 1009.93 1010.13 1010.39 1010.68 1010.95 1011.14 1011.22 1011.15 1010.94 1010.60 1010.18 1009.74 1009.32 1008.97 1008.70 1008.51 1008.37 1008.26 1008.13 1007.95 1007.70 1007.38 1007.03 1006.68 1006.35 1006.08 1005.90 1005.79 1005.73 1005.71 1005.69 1005.66 1005.59 1005.50 1005.43 1005.39 1005.43 1005.58 1005.85 1006.22 1006.68
1009.93 1009.93 1009.98 1010.11 1010.32 1010.60 1010.91 1011.20 1011.40 1011.47 1011.39 1011.15 1010.78 1010.32 1009.84 1009.38 1008.99 1008.70 1008.50 1008.36 1008.24 1008.11 1007.92 1007.64 1007.28 1006.86 1006.41 1005.97 1005.58 1005.27 1005.05 1004.90 1004.82 1004.77 1004.73 1004.68 1004.64 1004.61 1004.61 1004.69 1004.85 1005.13 1005.50 1005.96
1010.13 1010.14 1010.19 1010.32 1010.53 1010.79 1011.08 1011.35 1011.53 1011.58 1011.47 1011.22 1010.83 1010.36 1009.87 1009.41 1009.02 1008.73 1008.53 1008.39 1008.27 1008.13 1007.91 1007.59 1007.16 1006.64 1006.07 1005.50 1004.97 1004.51 1004.16 1003.92 1003.76 1003.68 1003.65 1003.65 1003.66 1003.70 1003.78 1003.91 1004.11 1004.41 1004.79 1005.26
1010.32 1010.35 1010.41 1010.52 1010.69 1010.91 1011.15 1011.35 1011.48 1011.50 1011.37 1011.10 1010.73 1010.28 1009.81 1009.39 1009.03 1008.77 1008.59 1008.46 1008.34 1008.17 1007.91 1007.52 1007.00 1006.38 1005.68 1004.96 1004.27 1003.67 1003.19 1002.84 1002.63 1002.53 1002.52 1002.57 1002.67 1002.81 1002.98 1003.19 1003.46 1003.79 1004.19 1004.66
1010.46 1010.52 1010.58 1010.66 1010.78 1010.92 1011.07 1011.20 1011.26 1011.22 1011.07 1010.82 1010.47 1010.07 1009.68 1009.32 1009.03 1008.82 1008.68 1008.57 1008.44 1008.24 1007.92 1007.46 1006.84 1006.09 1005.25 1004.38 1003.55 1002.81 1002.21 1001.78 1001.52 1001.42 1001.44 1001.57 1001.77 1002.02 1002.30 1002.62 1002.96 1003.35 1003.77 1004.24
1010.54 1010.63 1010.68 1010.72 1010.77 1010.82 1010.88 1010.91 1010.89 1010.80 1010.64 1010.40 1010.10 1009.79 1009.48 1009.22 1009.03 1008.89 1008.80 1008.70 1008.57 1008.33 1007.95 1007.39 1006.67 1005.80 1004.83 1003.83 1002.87 1002.02 1001.33 1000.83 1000.54 1000.45 1000.52 1000.74 1001.04 1001.41 1001.82 1002.24 1002.67 1003.11 1003.57 1004.04
1010.55 1010.65 1010.69 1010.69 1010.67 1010.63 1010.59 1010.52 1010.43 1010.30 1010.13 1009.92 1009.70 1009.48 1009.29 1009.14 1009.04 1008.98 1008.94 1008.86 1008.71 1008.43 1007.98 1007.34 1006.52 1005.55 1004.47 1003.37 1002.32 1001.38 1000.62 1000.09 999.78 999.71 999.84 1000.13 1000.54 1001.02 1001.54 1002.06 1002.58 1003.07 1003.55 1004.02
1010.49 1010.60 1010.62 1010.58 1010.49 1010.38 1010.25 1010.10 1009.95 1009.79 1009.63 1009.47 1009.33 1009.21 1009.13 1009.09 1009.09 1009.10 1009.09 1009.03 1008.85 1008.52 1008.01 1007.30 1006.40 1005.35 1004.21 1003.04 1001.93 1000.94 1000.15 999.60 999.30 999.24 999.41 999.76 1000.24 1000.81 1001.42 1002.02 1002.60 1003.14 1003.64 1004.10
1010.37 1010.47 1010.48 1010.40 1010.27 1010.09 1009.90 1009.70 1009.51 1009.35 1009.21 1009.10 1009.04 1009.03 1009.05 1009.11 1009.19 1009.25 1009.27 1009.19 1008.99 1008.61 1008.04 1007.28 1006.33 1005.24 1004.06 1002.87 1001.74 1000.74 999.95 999.39 999.09 999.04 999.22 999.60 1000.12 1000.73 1001.38 1002.03 1002.65 1003.22 1003.73 1004.19
1010.19 1010.28 1010.27 1010.17 1010.00 1009.79 1009.56 1009.34 1009.14 1008.99 1008.89 1008.85 1008.87 1008.94 1009.05 1009.18 1009.32 1009.41 1009.43 1009.34 1009.10 1008.68 1008.07 1007.27 1006.30 1005.21 1004.04 1002.87 1001.76 1000.79 1000.00 999.45 999.14 999.08 999.25 999.61 1000.11 1000.71 1001.36 1002.02 1002.64 1003.22 1003.73 1004.19
1009.96 1010.04 1010.01 1009.90 1009.71 1009.49 1009.25 1009.03 1008.85 1008.72 1008.67 1008.69 1008.78 1008.92 1009.10 1009.29 1009.45 1009.55 1009.56 1009.44 1009.16 1008.71 1008.07 1007.27 1006.32 1005.26 1004.14 1003.03 1001.98 1001.05 1000.30 999.75 999.43 999.33 999.44 999.74 1000.18 1000.72 1001.32 1001.93 1002.54 1003.10 1003.61 1004.08
1009.71 1009.77 1009.73 1009.61 1009.42 1009.20 1008.97 1008.76 1008.60 1008.52 1008.51 1008.58 1008.73 1008.93 1009.15 1009.37 1009.54 1009.64 1009.62 1009.47 1009.16 1008.69 1008.06 1007.27 1006.37 1005.38 1004.35 1003.33 1002.37 1001.52 1000.81 1000.27 999.92 999.77 999.80 1000.00 1000.33 1000.77 1001.27 1001.82 1002.37 1002.90 1003.41 1003.88
1009.47 1009.51 1009.46 1009.33 1009.15 1008.93 1008.71 1008.52 1008.39 1008.34 1008.37 1008.49 1008.68 1008.92 1009.17 1009.40 1009.57 1009.65 1009.61 1009.43 1009.11 1008.63 1008.02 1007.28 1006.46 1005.57 1004.66 1003.76 1002.91 1002.15 1001.50 1000.98 1000.61 1000.39 1000.33 1000.40 1000.60 1000.91 1001.30 1001.75 1002.23 1002.73 1003.22 1003.71
1009.29 1009.32 1009.26 1009.13 1008.95 1008.73 1008.51 1008.33 1008.21 1008.17 1008.23 1008.38 1008.59 1008.85 1009.12 1009.35 1009.52 1009.58 1009.53 1009.33 1009.01 1008.55 1007.98 1007.31 1006.58 1005.82 1005.04 1004.28 1003.57 1002.91 1002.33 1001.84 1001.46 1001.19 1001.03 1000.99 1001.06 1001.24 1001.51 1001.85 1002.26 1002.70 1003.18 1003.67
1009.24 1009.27 1009.21 1009.07 1008.87 1008.63 1008.39 1008.19 1008.06 1008.02 1008.08 1008.23 1008.46 1008.72 1009.00 1009.23 1009.39 1009.45 1009.39 1009.20 1008.88 1008.46 1007.94 1007.36 1006.75 1006.11 1005.48 1004.87 1004.29 1003.75 1003.26 1002.83 1002.45 1002.15 1001.93 1001.79 1001.75 1001.81 1001.97 1002.22 1002.55 1002.94 1003.39 1003.88
1009.38 1009.42 1009.36 1009.19 1008.96 1008.68 1008.40 1008.15 1007.98 1007.91 1007.94 1008.08 1008.30 1008.56 1008.83 1009.07 1009.23 1009.29 1009.24 1009.06 1008.78 1008.40 1007.95 1007.46 1006.94 1006.44 1005.95 1005.48 1005.04 1004.62 1004.23 1003.86 1003.53 1003.22 1002.97 1002.78 1002.67 1002.64 1002.71 1002.88 1003.15 1003.49 1003.91 1004.38
1009.78 1009.83 1009.75 1009.55 1009.25 1008.91 1008.55 1008.23 1007.99 1007.85 1007.84 1007.94 1008.13 1008.38 1008.66 1008.90 1009.07 1009.15 1009.12 1008.97 1008.72 1008.39 1008.00 1007.59 1007.17 1006.78 1006.40 1006.06 1005.75 1005.45 1005.16 1004.87 1004.59 1004.32 1004.08 1003.88 1003.73 1003.67 1003.70 1003.82 1004.04 1004.34 1004.72 1005.15
1010.42 1010.48 1010.37 1010.12 1009.75 1009.30 1008.84 1008.42 1008.08 1007.86 1007.78 1007.83 1007.99 1008.23 1008.50 1008.75 1008.95 1009.06 1009.06 1008.95 1008.75 1008.46 1008.12 1007.77 1007.43 1007.11 1006.82 1006.57 1006.35 1006.14 1005.95 1005.74 1005.54 1005.33 1005.13 1004.96 1004.83 1004.77 1004.79 1004.90 1005.10 1005.37 1005.72 1006.11
Thickness
5786 5781 5777 5781 5784 5785 5781 5776 5771 5771 5775 5768 5763 5759 5759 5760 5757 5753 5750 5747 5744 5741 5740 5738 5734 5733 5730 5725 5721 5719 5716 5713 5710 5708 5705 5702 5700 5699 5697 5695 5692 5690 5689 5688
5775 5773 5784 5787 5784 5779 5776 5769 5768 5767 5768 5762 5758 5755 5756 5755 5752 5749 5745 5742 5739 5737 5734 5730 5728 5727 5724 5720 5717 5715 5712 5709 5706 5703 5700 5697 5695 5694 5692 5690 5687 5685 5683 5682
5771 5779 5784 5779 5774 5770 5770 5768 5767 5760 5761 5760 5753 5748 5749 5751 5750 5745 5743 5741 5737 5732 5728 5726 5724 5721 5720 5716 5713 5712 5708 5704 5701 5698 5696 5692 5690 5689 5687 5684 5683 5681 5679 5678
5774 5781 5778 5773 5771 5770 5765 5774 5768 5760 5753 5754 5752 5742 5746 5747 5741 5739 5737 5736 5733 5730 5727 5723 5720 5718 5716 5714 5712 5708 5704 5700 5696 5693 5690 5686 5683 5682 5681 5679 5679 5676 5674 5674
5770 5776 5772 5767 5770 5772 5768 5774 5767 5760 5755 5751 5751 5742 5747 5745 5735 5735 5734 5732 5730 5727 5724 5720 5717 5715 5712 5710 5707 5704 5699 5695 5692 5688 5685 5681 5680 5679 5678 5676 5674 5671 5671 5669
5775 5781 5778 5773 5775 5773 5770 5764 5760 5758 5757 5739 5748 5740 5740 5742 5735 5733 5732 5729 5726 5724 5721 5718 5716 5712 5708 5706 5702 5698 5693 5689 5687 5684 5681 5678 5675 5673 5672 5670 5669 5668 5668 5667
5764 5771 5776 5777 5765 5765 5763 5752 5743 5741 5741 5742 5749 5738 5735 5738 5736 5732 5729 5726 5724 5721 5718 5715 5712 5708 5704 5700 5697 5693 5689 5684 5682 5680 5677 5674 5671 5668 5666 5666 5665 5664 5664 5663
5754 5756 5768 5770 5766 5759 5758 5754 5737 5728 5734 5746 5743 5733 5737 5737 5734 5731 5728 5725 5721 5718 5715 5711 5709 5705 5700 5696 5692 5689 5685 5680 5678 5676 5673 5670 5667 5666 5664 5662 5662 5661 5660 5660
5757 5755 5770 5770 5771 5767 5757 5756 5761 5746 5744 5735 5739 5735 5732 5732 5728 5725 5723 5720 5716 5714 5712 5709 5706 5701 5697 5692 5688 5685 5681 5677 5674 5672 5669 5666 5664 5662 5660 5658 5658 5658 5656 5656
5761 5748 5761 5766 5768 5765 5765 5761 5751 5741 5724 5722 5733 5732 5730 5724 5721 5719 5716 5713 5711 5709 5707 5704 5701 5698 5694 5690 5686 5681 5677 5674 5671 5669 5665 5664 5661 5658 5656 5655 5653 5653 5651 5650
5761 5746 5751 5755 5750 5752 5751 5748 5745 5745 5739 5722 5719 5725 5732 5724 5719 5715 5712 5709 5705 5703 5701 5699 5696 5694 5690 5686 5682 5677 5673 5671 5668 5665 5662 5659 5657 5655 5653 5651 5650 5648 5647 5646
5756 5750 5744 5750 5758 5760 5754 5749 5743 5729 5726 5727 5722 5721 5728 5723 5719 5714 5709 5705 5702 5699 5698 5695 5692 5688 5685 5681 5677 5673 5670 5667 5664 5661 5658 5655 5653 5651 5648 5647 5645 5644 5643 5642
5751 5741 5731 5737 5741 5747 5744 5745 5743 5737 5728 5724 5717 5717 5722 5719 5713 5709 5705 5701 5697 5694 5693 5690 5686 5682 5679 5676 5673 5669 5666 5663 5660 5657 5654 5651 5648 5646 5644 5643 5641 5640 5639 5638
5751 5741 5736 5730 5737 5743 5736 5737 5738 5732 5726 5722 5720 5717 5715 5711 5706 5702 5699 5695 5692 5689 5687 5683 5679 5676 5673 5671 5668 5665 5662 5659 5656 5653 5650 5647 5644 5642 5640 5639 5637 5636 5636 5634
5746 5737 5737 5739 5742 5741 5736 5733 5732 5727 5726 5720 5719 5714 5711 5706 5701 5697 5693 5690 5686 5684 5681 5677 5673 5670 5668 5665 5663 5660 5657 5654 5651 5648 5646 5643 5641 5639 5637 5635 5633 5632 5631 5631
5739 5732 5731 5728 5734 5733 5728 5729 5727 5723 5721 5718 5714 5707 5710 5704 5699 5693 5689 5685 5680 5678 5675 5672 5668 5665 5662 5659 5657 5655 5652 5649 5647 5644 5642 5640 5638 5637 5634 5632 5630 5628 5628 5627
5735 5727 5722 5723 5728 5724 5718 5725 5723 5720 5720 5714 5706 5705 5703 5696 5691 5687 5684 5680 5675 5672 5669 5666 5663 5660 5657 5655 5652 5650 5648 5646 5643 5641 5639 5637 5635 5633 5631 5629 5628 5625 5624 5623
5729 5724 5723 5721 5714 5700 5719 5728 5724 5717 5714 5712 5707 5703 5698 5692 5688 5685 5681 5675 5671 5667 5664 5661 5659 5656 5654 5652 5649 5647 5645 5642 5640 5637 5636 5635 5632 5630 5628 5626 5624 5622 5621 5620
5729 5721 5718 5715 5710 5711 5715 5717 5715 5707 5703 5706 5701 5696 5693 5689 5682 5680 5676 5671 5666 5663 5659 5656 5655 5653 5650 5648 5645 5643 5641 5639 5637 5634 5632 5631 5629 5626 5624 5622 5620 5619 5617 5616
5720 5719 5715 5710 5700 5699 5708 5714 5715 5705 5694 5700 5696 5689 5686 5681 5675 5672 5670 5666 5662 5658 5655 5651 5650 5648 5645 5643 5641 5638 5636 5634 5632 5630 5629 5628 5625 5622 5620 5618 5616 5615 5614 5613
5710 5707 5706 5703 5699 5706 5706 5709 5704 5688 5689 5694 5691 5685 5681 5675 5671 5668 5665 5661 5657 5653 5649 5647 5645 5643 5640 5638 5636 5633 5631 5629 5628 5628 5626 5624 5621 5619 5617 5615 5613 5612 5611 5611
5708 5706 5700 5699 5692 5693 5699 5697 5692 5689 5691 5688 5684 5681 5675 5671 5667 5662 5658 5654 5651 5648 5645 5642 5639 5637 5635 5634 5631 5628 5626 5626 5624 5623 5621 5619 5618 5616 5616 5612 5610 5610 5608 5608
5705 5704 5706 5699 5694 5692 5694 5691 5690 5689 5684 5681 5678 5675 5670 5665 5660 5656 5652 5648 5646 5643 5640 5637 5634 5632 5630 5629 5627 5623 5622 5622 5620 5618 5616 5615 5614 5613 5611 5609 5609 5608 5607 5607
5696 5696 5694 5689 5688 5688 5687 5686 5684 5682 5678 5676 5672 5668 5664 5658 5654 5650 5647 5643 5640 5638 5635 5632 5630 5627 5626 5624 5623 5621 5620 5618 5616 5614 5612 5612 5611 5611 5609 5608 5608 5606 5605 5604
5690 5686 5684 5681 5681 5679 5678 5678 5676 5673 5672 5668 5665 5661 5656 5652 5647 5643 5640 5637 5635 5632 5630 5628 5625 5623 5622 5621 5619 5618 5616 5614 5611 5610 5609 5609 5609 5609 5606 5606 5603 5602 5600 5597
5685 5680 5677 5677 5676 5673 5669 5670 5668 5664 5661 5659 5655 5651 5649 5645 5640 5637 5634 5632 5629 5627 5625 5623 5621 5619 5618 5617 5615 5614 5612 5610 5607 5606 5605 5606 5606 5605 5605 5604 5603 5598 5595 5591